Voltar ao catálogo

STARLINK-5275

AtivoComunicaçõesVLEO
NORAD 55398·PAYLOAD·🇺🇸 United States

Lançado Jan 31, 2023 de Vandenberg Space Force Base

Loading…

Próximas Passagens (próximas 24 horas)

TLE

AtualizadoSource: CelesTrak SupGP

Época: Sep 14, 2026, 22:28 UTC

1 55398C 23014H   26257.93659722  .00042628  00000+0  35734-2 0  2577
2 55398  69.9999 307.2609 0003681 267.5958  94.8189 14.98297465    15

Acompanhe STARLINK-5275 em tempo real com AllMySat

Download on the App Store